• Processing (Info)

  • MPEC 2023-G84 : 2016 FK164

    The following Minor Planet Electronic Circular may be linked-to from your own Web pages, but must not otherwise be redistributed electronically.

    A form allowing access to any MPEC is at the bottom of this page.


    Read MPEC 2023-G83 Read MPEC 2023-G85


    M.P.E.C. 2023-G84                                Issued 2023 April 14, 16:29 UT
    
         The Minor Planet Electronic Circulars contain information on unusual
             minor planets, routine data on comets and natural satellites,
             and occasional editorial announcements.  They are published
        on behalf of Division F of the International Astronomical Union by the
              Minor Planet Center, Smithsonian Astrophysical Observatory,
                              Cambridge, MA 02138, U.S.A.
    			  
                 Prepared using the Tamkin Foundation Computer Network
    
                                  MPC@CFA.HARVARD.EDU
                URL https://www.minorplanetcenter.net/    ISSN 1523-6714
    
                                   2016 FK164                                
    
    
    Observations:
         K16FG4K &C2014 05 02.04832513 06 40.93 -28 42 03.8          22.4 VWEG084W84
         K16FG4K &C2015 06 08.18130713 07 51.35 -29 04 07.3          22.5 rWEG084W84
         K16FG4K &C2015 06 08.18335813 07 51.33 -29 04 07.3                WEG084W84
         K16FG4K &C2015 06 08.99828113 07 49.64 -29 03 43.9          23.4 gWEG084W84
         K16FG4K &C2015 06 08.99976613 07 49.65 -29 03 43.8                WEG084W84
         K16FG4K &C2015 06 09.00123713 07 49.63 -29 03 43.8          23.3 gWEG084W84
         K16FG4K &C2015 06 09.00270813 07 49.63 -29 03 43.7                WEG084W84
         K16FG4K -C2016 03 17.18193213 16 28.79 -30 14 38.5          22.3 rWEG084309
         K16FG4K -C2016 03 17.19768913 16 28.73 -30 14 38.3                WEG084309
         K16FG4K -C2016 03 17.21343713 16 28.66 -30 14 38.2          22.4 rWEG084309
         K16FG4K* C2016 05 06.02816 13 12 47.423-29 59 45.04         22.0 rVEG084807
         K16FG4K  C2016 05 06.12883 13 12 47.005-29 59 42.46         22.0 rVEG084807
         K16FG4K  C2016 05 06.22900 13 12 46.580-29 59 39.82         22.0 rVEG084807
         K16FG4K &C2017 05 03.01154413 16 17.92 -30 40 48.1          22.2 iWEG084W84
         K16FG4K &C2017 05 03.01291113 16 17.91 -30 40 48.0                WEG084W84
         K16FG4K &C2019 07 12.08334513 20 17.70 -31 26 25.5          22.5 zWEG084W84
         K16FG4K &C2019 07 12.08620013 20 17.70 -31 26 25.4                WEG084W84
    
    Observer details:
    309 Cerro Paranal.  Observer .  Measurers S. Deen, K. Ly.  2.65-m Ritchey-
        Chretien + CCD.
    807 Cerro Tololo Observatory, La Serena.  Observers S. S. Sheppard, C.
        Trujillo.  Measurer S. S. Sheppard.  4.0-m CTIO reflector + CCD.
    W84 Cerro Tololo-DECam.  Observer .  Measurers S. Deen, K. Ly.  4.0-m
        reflector + CCD.
    
    Orbital elements:
    2016 FK164                                                                      
    Epoch 2023 Feb. 25.0 TT = JDT 2460000.5                 Pike                    
    M 207.58721              (2000.0)            P               Q                  
    n   0.00336630     Peri.   33.24357     +0.93562965     -0.33041726             
    a  44.0927476      Node   344.50338     +0.12277368     +0.63446942             
    e   0.1418043      Incl.   27.69673     +0.33094377     +0.69876534             
    P 293              H    5.51          G   0.15           U   6                  
    Residuals in seconds of arc
    140502 W84  0.4+  0.1-    150609 W84  0.2-  0.1+    160506 807  0.2+  0.5-
    150608 W84  0.1+  0.2+    160317 309  0.2-  0.0     170503 W84  0.1-  0.1-
    150608 W84  0.1-  0.2+    160317 309  0.1-  0.1+    170503 W84  0.2-  0.0
    150608 W84  0.1-  0.0     160317 309  0.2-  0.1+    190712 W84  0.1+  0.1+
    150608 W84  0.0   0.1+    160506 807  0.3+  0.2-    190712 W84  0.1+  0.1+
    150609 W84  0.2-  0.1+    160506 807  0.3+  0.3-
    
    Ephemeris:
    2016 FK164               a,e,i = 44.09, 0.14, 28                 q = 37.8402
    Date    TT    R. A. (2000) Decl.     Delta      r    Elong.  Phase     V
    2023 03 15    13 40 51.0 -34 42 32  49.1094 49.7912   132.9     0.8    22.6
    ...
    2023 03 30    13 39 46.5 -34 42 05  48.9679 49.7892   145.0     0.7    22.6
    ...
    2023 04 07    13 39 08.9 -34 40 53  48.9146 49.7881   150.5     0.6    22.6
    ...
    2023 04 13    13 38 40.0 -34 39 33  48.8855 49.7873   153.9     0.5    22.5
    2023 04 14    13 38 35.1 -34 39 18  48.8816 49.7872   154.3     0.5    22.5
    2023 04 15    13 38 30.3 -34 39 02  48.8780 49.7871   154.8     0.5    22.5
    ...
    2023 04 21    13 38 01.1 -34 37 16  48.8618 49.7863   156.7     0.5    22.5
    ...
    2023 04 29    13 37 22.6 -34 34 28  48.8556 49.7852   157.2     0.4    22.5
    ...
    2023 05 14    13 36 14.5 -34 28 02  48.8908 49.7832   151.7     0.6    22.5
    
    M. P. C. Staff               (C) Copyright 2023 MPC           M.P.E.C. 2023-G84
    


    Read MPEC 2023-G83 Read MPEC 2023-G85


    MPEC number:

    Enter an MPEC number in one of the following forms:

    • 1997-B01 (the full form)
    • J97B01 (the packed version of the full form)
    • B01 (the abbreviated form)